"startDT [UTC]","vpos","CH4 [ppm]","stdev(CH4) [ppm]","CO2 [ppm]","stdev(CO2) [ppm]","H2O [ppm]","stdev(H2O)","p_LGR [torr]","T_LGR [C]","mt1_LGR [us]","mt2_LGR [us]","T_ECpre [C]","T_EC1 [C]","T_EC2 [C]","p_inlet [hPa]","p_in [hPa]","p_out [hPa]","T_inlet [C]","RH_inlet [%]","dwpt_inlet [C]","T_vent [C]","RH_vent [%]","dwpt_vent [C]","flow_vent [l min-1]","flow_inlet [l min-1]","dwpt_sample [C]","T_room [C]"
2012-08-22 00:00:00,0.0,1.9372,0.0010,386.54,0.26,258.2,27.5,138.05,31.39,24.66,36.54,0.96,-26.19,-20.74,-50,77,-923,26.0,22.9,3.2,25.8,1.6,-29.4,5.73,2.53,-27.1,29.8
2012-08-22 00:01:00,0.0,1.9363,0.0010,386.46,0.31,248.2,27.2,138.05,31.39,24.66,36.54,1.02,-26.20,-21.26,-50,78,-923,26.0,23.0,3.3,25.8,1.6,-29.4,5.73,2.53,-27.1,29.8
2012-08-22 00:02:00,0.0,1.9354,0.0008,386.42,0.33,258.5,30.2,138.05,31.39,24.66,36.55,1.06,-26.21,-21.76,-50,78,-923,26.0,22.3,2.8,25.8,1.6,-29.4,5.73,2.52,-27.2,29.8
2012-08-22 00:03:00,0.0,1.9364,0.0016,386.36,0.35,251.3,31.2,138.05,31.39,24.66,36.55,1.01,-26.22,-22.22,-50,78,-923,26.0,22.3,2.8,25.8,1.6,-29.4,5.73,2.51,-27.2,29.8
2012-08-22 00:04:00,0.0,1.9386,0.0011,386.53,0.28,248.9,29.7,138.05,31.39,24.66,36.55,0.96,-26.23,-22.66,-50,78,-923,26.0,22.5,3.0,25.8,1.6,-29.3,5.73,2.51,-27.2,29.8
2012-08-22 00:05:00,0.0,1.9382,0.0009,386.56,0.33,246.1,31.4,138.05,31.39,24.66,36.54,1.00,-26.24,-23.07,-50,78,-923,26.0,22.0,2.7,25.8,1.6,-29.5,5.73,2.51,-27.2,29.8
2012-08-22 00:06:00,0.0,1.9376,0.0009,386.58,0.24,247.9,30.5,138.05,31.39,24.66,36.55,1.04,-26.25,-23.47,-50,78,-923,26.0,22.0,2.6,25.8,1.6,-29.6,5.73,2.52,-27.2,29.8
2012-08-22 00:07:00,0.0,1.9369,0.0009,386.53,0.24,238.3,33.5,138.05,31.38,24.66,36.54,1.04,-26.27,-23.84,-50,77,-923,26.0,22.1,2.7,25.8,1.6,-29.5,5.73,2.52,-27.2,29.8
2012-08-22 00:08:00,0.0,1.9353,0.0010,386.42,0.29,244.2,28.1,138.05,31.38,24.66,36.55,0.97,-26.28,-24.18,-50,78,-923,26.0,22.1,2.7,25.8,1.6,-29.5,5.73,2.53,-27.2,29.9
2012-08-22 00:09:00,0.0,1.9357,0.0010,386.41,0.31,251.8,30.3,138.05,31.38,24.66,36.54,0.98,-26.29,-24.51,-50,78,-923,26.0,22.3,2.8,25.8,1.6,-29.5,5.73,2.53,-27.2,29.9
2012-08-22 00:10:00,0.0,1.9366,0.0012,386.52,0.27,247.0,24.9,138.05,31.38,24.66,36.54,1.01,-26.30,-24.82,-50,78,-923,26.0,22.1,2.7,25.8,1.6,-29.5,5.73,2.52,-27.2,29.9
2012-08-22 00:11:00,0.0,1.9373,0.0011,386.55,0.29,241.8,27.6,138.05,31.38,24.66,36.55,1.06,-26.31,-25.10,-50,78,-923,26.0,22.0,2.6,25.8,1.6,-29.6,5.73,2.51,-27.3,29.9
2012-08-22 00:12:00,0.0,1.9371,0.0009,386.48,0.27,249.3,31.9,138.05,31.38,24.66,36.55,1.01,-26.32,-25.37,-50,78,-923,26.0,22.2,2.7,25.8,1.6,-29.5,5.73,2.51,-27.3,29.9
2012-08-22 00:13:00,0.0,1.9380,0.0008,386.55,0.33,240.0,29.9,138.05,31.38,24.66,36.54,0.96,-26.33,-25.63,-50,78,-923,26.0,22.0,2.7,25.8,1.6,-29.6,5.73,2.51,-27.3,29.9
2012-08-22 00:14:00,0.0,1.9387,0.0009,386.51,0.23,247.1,28.6,138.05,31.38,24.66,36.54,0.99,-26.34,-25.88,-50,78,-923,26.0,21.9,2.6,25.8,1.6,-29.6,5.73,2.52,-27.3,29.9
2012-08-22 00:15:00,0.0,1.9396,0.0009,386.46,0.27,243.2,25.2,138.05,31.38,24.66,36.55,1.04,-26.35,-26.10,-50,78,-923,26.0,22.2,2.7,25.8,1.6,-29.5,5.73,2.52,-27.3,29.9
2012-08-22 00:16:00,0.0,1.9405,0.0009,386.48,0.30,245.6,29.9,138.05,31.38,24.66,36.55,1.06,-26.36,-26.32,-50,78,-923,26.0,22.6,3.0,25.8,1.6,-29.6,5.73,2.53,-27.3,29.8
2012-08-22 00:17:00,0.0,1.9405,0.0009,386.65,0.32,243.0,29.7,138.05,31.38,24.66,36.54,0.94,-26.37,-26.20,-50,78,-923,26.0,22.5,3.0,25.8,1.6,-29.5,5.73,2.53,-27.3,29.8
2012-08-22 00:18:00,0.0,1.9402,0.0010,386.58,0.22,241.3,24.3,138.05,31.38,24.66,36.55,0.99,-26.37,-26.13,-50,77,-923,26.0,22.2,2.8,25.8,1.6,-29.5,5.73,2.52,-27.3,29.8
2012-08-22 00:19:00,0.0,1.9399,0.0009,386.56,0.27,239.7,34.3,138.05,31.38,24.66,36.55,0.97,-26.38,-26.29,-50,78,-923,26.0,22.2,2.8,25.8,1.6,-29.6,5.73,2.51,-27.4,29.9
2012-08-22 00:20:00,0.0,1.9404,0.0009,386.56,0.32,235.4,31.9,138.05,31.38,24.66,36.55,0.92,-26.39,-26.35,-50,78,-923,26.0,22.3,2.8,25.8,1.6,-29.5,5.73,2.51,-27.4,29.9
2012-08-22 00:21:00,0.0,1.9412,0.0009,386.61,0.30,242.3,31.7,138.05,31.38,24.65,36.55,1.02,-26.41,-26.13,-50,78,-923,26.0,22.3,2.8,25.8,1.6,-29.5,5.73,2.51,-27.4,29.8
2012-08-22 00:22:00,0.0,1.9402,0.0009,386.65,0.27,228.7,23.3,138.05,31.38,24.66,36.54,1.07,-26.41,-26.24,-50,78,-923,26.0,22.6,3.0,25.8,1.6,-29.6,5.73,2.52,-27.4,29.8
2012-08-22 00:23:00,0.0,1.9380,0.0012,386.60,0.34,239.1,26.9,138.05,31.38,24.66,36.54,1.01,-26.42,-26.41,-50,78,-923,26.0,22.5,3.0,25.8,1.6,-29.6,5.73,2.53,-27.4,29.9
2012-08-22 00:24:00,0.0,1.9383,0.0008,386.63,0.28,241.0,26.0,138.05,31.38,24.66,36.54,0.95,-26.43,-26.20,-50,78,-923,26.0,21.7,2.4,25.8,1.6,-29.7,5.73,2.53,-27.4,29.8
2012-08-22 00:25:00,0.0,1.9389,0.0009,386.67,0.26,243.1,29.3,138.05,31.38,24.66,36.54,0.96,-26.43,-26.20,-50,78,-923,26.0,22.0,2.6,25.8,1.6,-29.7,5.73,2.52,-27.4,29.8
2012-08-22 00:26:00,0.0,1.9392,0.0010,386.56,0.30,241.0,30.9,138.05,31.38,24.66,36.54,1.00,-26.44,-26.37,-50,78,-923,26.0,22.2,2.7,25.8,1.6,-29.7,5.73,2.51,-27.4,29.8
2012-08-22 00:27:00,0.0,1.9390,0.0010,386.51,0.30,239.3,24.5,138.05,31.38,24.66,36.55,0.94,-26.45,-26.35,-50,78,-923,26.0,22.2,2.8,25.8,1.6,-29.7,5.73,2.51,-27.4,29.8
2012-08-22 00:28:00,0.0,1.9384,0.0009,386.62,0.31,241.3,29.8,138.05,31.37,24.66,36.54,1.05,-26.46,-26.19,-50,77,-922,26.0,21.9,2.6,25.8,1.6,-29.7,5.73,2.51,-27.4,29.9
2012-08-22 00:29:00,0.0,1.9383,0.0008,386.65,0.28,238.6,26.9,138.05,31.37,24.66,36.55,1.02,-26.45,-26.33,-50,78,-922,26.0,21.7,2.4,25.8,1.6,-29.7,5.73,2.51,-27.4,29.9
2012-08-22 00:30:00,0.0,1.9393,0.0009,386.63,0.30,231.6,28.0,138.05,31.37,24.66,36.54,0.89,-25.63,-26.51,-50,78,-922,26.0,21.8,2.5,25.8,1.6,-29.7,5.73,2.52,-27.5,29.8
2012-08-22 00:31:00,0.0,1.9400,0.0008,386.62,0.29,246.0,25.5,138.05,31.37,24.66,36.55,0.84,-23.83,-26.65,-50,78,-922,26.0,21.8,2.5,25.8,1.5,-29.9,5.73,2.52,-27.3,29.9
2012-08-22 00:32:00,0.0,1.9400,0.0010,386.58,0.26,262.8,32.6,138.05,31.37,24.66,36.54,0.86,-21.88,-26.74,-50,78,-922,26.0,22.1,2.7,25.8,1.6,-29.2,5.73,2.52,-26.9,29.9
2012-08-22 00:33:00,0.0,1.9400,0.0009,386.52,0.30,286.4,31.5,138.05,31.37,24.66,36.55,0.89,-19.98,-26.79,-50,78,-922,26.0,22.5,3.0,25.8,1.8,-28.5,5.73,2.52,-26.5,29.9
2012-08-22 00:34:00,0.0,1.9401,0.0010,386.51,0.32,308.7,32.3,138.05,31.37,24.66,36.55,0.92,-18.16,-26.82,-50,78,-922,26.0,22.1,2.7,25.8,1.8,-28.0,5.73,2.51,-26.3,30.0
2012-08-22 00:35:00,0.0,1.9404,0.0008,386.47,0.26,326.3,29.3,138.05,31.37,24.66,36.54,0.93,-16.42,-26.82,-50,78,-923,26.0,22.7,3.1,25.8,1.9,-27.8,5.73,2.52,-26.2,29.9
2012-08-22 00:36:00,0.0,1.9403,0.0009,386.58,0.27,324.0,31.4,138.05,31.37,24.66,36.55,0.94,-14.78,-26.83,-50,78,-923,26.0,22.7,3.1,25.8,1.9,-27.8,5.73,2.51,-26.1,29.9
2012-08-22 00:37:00,0.0,1.9404,0.0012,386.62,0.29,318.2,29.0,138.05,31.37,24.66,36.54,0.93,-13.22,-26.82,-50,78,-922,26.0,22.3,2.8,25.8,1.9,-27.8,5.73,2.51,-26.1,30.0
2012-08-22 00:38:00,0.0,1.9401,0.0009,386.63,0.28,318.7,32.3,138.05,31.37,24.66,36.54,0.91,-11.75,-26.81,-50,77,-923,26.0,22.2,2.8,25.8,1.8,-28.0,5.73,2.52,-26.2,30.0
2012-08-22 00:39:00,0.0,1.9404,0.0011,386.72,0.27,324.5,26.6,138.05,31.37,24.66,36.54,0.90,-10.36,-26.80,-50,78,-923,26.0,22.7,3.1,25.8,1.8,-28.0,5.73,2.52,-26.2,30.0
2012-08-22 00:40:00,0.0,1.9398,0.0010,386.72,0.29,319.6,29.6,138.05,31.37,24.66,36.53,0.88,-9.04,-26.79,-50,78,-922,26.0,22.6,3.0,25.8,1.8,-28.1,5.73,2.52,-26.2,30.0
2012-08-22 00:41:00,0.0,1.9393,0.0008,386.64,0.30,317.7,33.3,138.05,31.37,24.66,36.54,0.89,-7.77,-26.78,-50,78,-922,26.0,22.3,2.8,25.8,1.8,-28.2,5.73,2.52,-26.3,29.9
2012-08-22 00:42:00,0.0,1.9396,0.0008,386.69,0.30,306.7,37.0,138.05,31.37,24.66,36.54,0.91,-6.56,-26.76,-50,77,-922,26.0,22.5,3.0,25.8,1.8,-28.3,5.73,2.52,-26.3,29.9
2012-08-22 00:43:00,0.0,1.9394,0.0008,386.70,0.28,305.7,29.8,138.05,31.37,24.66,36.55,0.92,-5.42,-26.75,-50,77,-922,26.0,22.5,3.0,25.8,1.8,-28.5,5.73,2.52,-26.4,30.0
2012-08-22 00:44:00,0.0,1.9391,0.0008,386.72,0.24,306.5,26.2,138.05,31.37,24.66,36.53,0.94,-4.35,-26.73,-50,77,-922,26.0,22.6,3.0,25.8,1.8,-28.5,5.73,2.52,-26.4,30.0
2012-08-22 00:45:00,0.0,1.9392,0.0009,386.67,0.27,297.2,29.2,138.05,31.37,24.66,36.54,0.93,-3.32,-26.72,-50,78,-922,26.0,22.6,3.0,25.8,1.7,-28.7,5.73,2.52,-26.5,30.0
2012-08-22 00:46:00,0.0,1.9395,0.0009,386.57,0.28,302.8,30.5,138.05,31.37,24.66,36.55,0.94,-2.35,-26.71,-50,77,-922,26.0,22.8,3.1,25.8,1.7,-28.6,5.73,2.51,-26.6,30.0
2012-08-22 00:47:00,0.0,1.9390,0.0010,386.65,0.33,288.5,29.8,138.05,31.37,24.66,36.54,0.94,-1.43,-26.69,-50,77,-922,26.0,22.7,3.0,25.8,1.7,-28.8,5.73,2.51,-26.6,30.0
2012-08-22 00:48:00,0.0,1.9389,0.0008,386.61,0.29,290.2,31.9,138.05,31.37,24.66,36.54,0.94,-0.55,-26.67,-50,78,-922,26.0,22.6,3.0,25.9,1.7,-28.9,5.73,2.51,-26.7,30.0
2012-08-22 00:49:00,0.0,1.9389,0.0008,386.44,0.30,286.7,31.1,138.05,31.37,24.66,36.55,0.94,0.28,-26.66,-50,78,-922,26.0,22.7,3.1,25.8,1.7,-29.0,5.73,2.51,-26.7,30.0
2012-08-22 00:50:00,0.0,1.9390,0.0008,386.63,0.30,287.6,29.7,138.05,31.37,24.66,36.54,0.94,1.05,-26.64,-50,77,-922,26.0,22.4,2.9,25.8,1.7,-29.0,5.73,2.51,-26.8,30.1
2012-08-22 00:51:00,0.0,1.9386,0.0010,386.55,0.30,284.7,27.2,138.05,31.37,24.66,36.54,0.92,1.79,-26.62,-50,77,-922,26.0,22.5,2.9,25.9,1.7,-29.0,5.73,2.52,-26.8,30.1
2012-08-22 00:52:00,0.0,1.9383,0.0010,386.52,0.32,280.8,29.1,138.05,31.37,24.66,36.54,0.91,2.45,-26.61,-50,77,-922,26.0,22.4,2.9,25.8,1.6,-29.2,5.73,2.52,-26.8,30.0
2012-08-22 00:53:00,0.0,1.9388,0.0010,386.70,0.29,269.4,27.3,138.05,31.37,24.66,36.54,0.90,2.82,-26.59,-50,77,-922,26.0,22.1,2.7,25.8,1.6,-29.2,5.73,2.52,-26.9,30.1
2012-08-22 00:54:00,0.0,1.9390,0.0008,386.57,0.29,275.8,29.1,138.05,31.37,24.66,36.55,0.91,2.96,-26.58,-50,77,-922,26.0,22.3,2.8,25.9,1.6,-29.1,5.73,2.52,-26.9,30.1
2012-08-22 00:55:00,0.0,1.9389,0.0009,386.48,0.29,266.5,31.1,138.05,31.37,24.66,36.55,0.92,3.27,-26.56,-50,77,-922,26.0,22.9,3.2,25.8,1.6,-29.2,5.73,2.52,-27.0,30.1
2012-08-22 00:56:00,0.0,1.9384,0.0009,386.55,0.24,271.4,30.5,138.05,31.37,24.66,36.54,0.91,3.68,-26.54,-50,77,-922,26.0,22.8,3.1,25.9,1.6,-29.3,5.73,2.52,-27.0,30.1
2012-08-22 00:57:00,0.0,1.9378,0.0009,386.60,0.28,273.8,32.2,138.05,31.37,24.66,36.54,0.92,4.11,-26.53,-50,77,-922,26.0,22.3,2.8,25.9,1.6,-29.4,5.73,2.52,-27.0,30.0
2012-08-22 00:58:00,0.0,1.9390,0.0008,386.76,0.27,261.5,28.5,138.05,31.38,24.66,36.54,0.93,4.58,-26.51,-50,77,-922,26.0,22.4,2.9,25.9,1.6,-29.4,5.73,2.52,-27.0,30.0
2012-08-22 00:59:00,0.0,1.9389,0.0008,386.66,0.29,262.2,30.3,138.05,31.38,24.66,36.55,0.93,5.04,-26.49,-50,77,-922,26.0,22.2,2.8,25.9,1.6,-29.4,5.73,2.51,-27.1,30.1
2012-08-22 01:00:00,0.0,1.9387,0.0008,386.63,0.33,252.6,27.7,138.05,31.37,24.66,36.55,0.94,5.52,-26.49,-50,77,-922,26.0,22.1,2.7,25.9,1.6,-29.3,5.73,2.51,-27.1,30.0
2012-08-22 01:01:00,0.0,1.9394,0.0008,386.66,0.28,261.9,29.4,138.05,31.37,24.66,36.54,0.93,6.01,-26.47,-50,77,-922,26.0,22.4,2.9,25.9,1.6,-29.4,5.73,2.51,-27.1,30.1
2012-08-22 01:02:00,0.0,1.9404,0.0011,386.56,0.31,258.9,31.7,138.05,31.37,24.66,36.55,0.93,6.62,-26.46,-50,77,-922,26.0,22.5,2.9,25.9,1.6,-29.4,5.73,2.51,-27.1,30.1
2012-08-22 01:03:00,0.0,1.9399,0.0010,386.61,0.30,255.4,28.9,138.05,31.37,24.66,36.55,0.93,7.14,-26.45,-50,77,-922,26.0,22.4,2.9,25.9,1.6,-29.3,5.73,2.51,-27.1,30.1
2012-08-22 01:04:00,0.0,1.9399,0.0009,386.64,0.31,259.3,31.2,138.05,31.38,24.66,36.55,0.93,7.60,-26.43,-50,77,-922,26.0,22.1,2.7,25.9,1.6,-29.5,5.73,2.51,-27.2,30.1
2012-08-22 01:05:00,0.0,1.9391,0.0011,386.77,0.29,254.4,27.1,138.05,31.38,24.66,36.53,0.94,8.02,-26.41,-50,77,-922,26.0,22.3,2.8,25.9,1.6,-29.5,5.73,2.51,-27.2,30.1
2012-08-22 01:06:00,0.0,1.9400,0.0009,386.62,0.26,262.6,27.6,138.05,31.38,24.66,36.55,0.94,8.43,-26.41,-50,77,-922,26.0,22.4,2.9,25.9,1.6,-29.5,5.73,2.51,-27.2,30.1
2012-08-22 01:07:00,0.0,1.9405,0.0008,386.53,0.28,251.6,29.5,138.05,31.38,24.66,36.55,0.93,8.82,-26.39,-50,77,-922,26.0,22.4,2.9,25.9,1.6,-29.5,5.73,2.51,-27.2,30.1
2012-08-22 01:08:00,0.0,1.9404,0.0010,386.60,0.29,251.3,24.6,138.05,31.38,24.66,36.55,0.94,9.19,-26.38,-50,77,-922,26.0,22.8,3.1,25.9,1.6,-29.5,5.73,2.51,-27.2,30.1
2012-08-22 01:09:00,0.0,1.9405,0.0009,386.60,0.27,254.1,28.8,138.05,31.38,24.66,36.55,0.94,9.55,-26.37,-50,77,-922,26.0,22.8,3.1,25.9,1.6,-29.6,5.73,2.52,-27.2,30.1
2012-08-22 01:10:00,0.0,1.9405,0.0008,386.57,0.32,254.9,29.4,138.05,31.38,24.66,36.55,0.94,9.90,-26.35,-50,77,-922,26.0,22.7,3.1,25.9,1.6,-29.5,5.73,2.52,-27.2,30.1
2012-08-22 01:11:00,0.0,1.9411,0.0008,386.69,0.30,253.0,28.1,138.05,31.38,24.65,36.54,0.94,10.23,-26.34,-50,77,-922,26.0,22.7,3.1,25.9,1.6,-29.5,5.73,2.52,-27.2,30.0
2012-08-22 01:12:00,0.0,1.9390,0.0010,386.74,0.33,254.3,28.5,138.05,31.38,24.66,36.54,0.94,10.56,-26.34,-50,77,-922,26.0,22.4,2.9,25.9,1.6,-29.6,5.73,2.51,-27.2,30.1
2012-08-22 01:13:00,0.0,1.9395,0.0010,386.63,0.27,250.4,27.8,138.05,31.38,24.66,36.55,0.94,10.87,-26.32,-50,77,-922,26.0,22.1,2.7,25.9,1.6,-29.5,5.73,2.52,-27.2,30.1
2012-08-22 01:14:00,0.0,1.9394,0.0011,386.42,0.25,251.2,26.6,138.05,31.38,24.66,36.56,0.94,11.18,-26.31,-50,77,-922,26.0,22.6,3.0,25.9,1.6,-29.5,5.73,2.51,-27.2,30.1
2012-08-22 01:15:00,0.0,1.9398,0.0008,386.48,0.33,249.6,26.2,138.05,31.38,24.66,36.55,0.94,11.47,-26.30,-50,77,-922,26.0,22.6,3.0,25.9,1.6,-29.6,5.73,2.51,-27.2,30.1
2012-08-22 01:16:00,0.0,1.9405,0.0010,386.60,0.24,248.7,28.3,138.05,31.38,24.66,36.55,0.94,11.74,-26.29,-50,77,-922,26.0,22.6,3.0,25.9,1.6,-29.5,5.73,2.51,-27.2,30.1
2012-08-22 01:17:00,0.0,1.9405,0.0008,386.61,0.26,254.4,31.1,138.05,31.38,24.66,36.54,0.94,12.01,-26.28,-50,77,-922,26.0,22.2,2.8,25.9,1.6,-29.5,5.73,2.51,-27.3,30.1
2012-08-22 01:18:00,0.0,1.9401,0.0009,386.62,0.27,247.6,31.2,138.05,31.39,24.66,36.55,0.94,12.27,-26.27,-50,77,-922,26.0,22.4,2.9,25.9,1.6,-29.5,5.73,2.51,-27.3,30.1
2012-08-22 01:19:00,0.0,1.9399,0.0011,386.62,0.28,244.9,28.9,138.05,31.39,24.66,36.55,0.95,12.51,-26.26,-50,77,-922,26.0,22.4,2.9,25.9,1.6,-29.5,5.73,2.51,-27.3,30.1
2012-08-22 01:20:00,0.0,1.9399,0.0009,386.74,0.25,247.4,28.1,138.05,31.39,24.66,36.54,0.94,12.75,-26.25,-50,77,-922,26.0,22.0,2.7,25.9,1.6,-29.5,5.73,2.51,-27.3,30.2
2012-08-22 01:21:00,0.0,1.9401,0.0009,386.66,0.26,248.8,33.9,138.05,31.39,24.66,36.55,0.95,12.98,-26.24,-50,77,-922,26.0,22.0,2.6,25.9,1.6,-29.5,5.73,2.51,-27.3,30.1
2012-08-22 01:22:00,0.0,1.9395,0.0013,386.60,0.24,242.6,30.4,138.05,31.39,24.66,36.55,0.95,13.20,-26.23,-50,77,-922,26.0,22.2,2.8,25.9,1.6,-29.5,5.73,2.51,-27.3,30.1
2012-08-22 01:23:00,0.0,1.9405,0.0008,386.69,0.26,249.6,26.5,138.05,31.39,24.66,36.54,0.94,13.41,-26.23,-50,77,-922,26.0,22.5,2.9,25.9,1.6,-29.5,5.73,2.51,-27.3,30.1
2012-08-22 01:24:00,0.0,1.9405,0.0011,386.65,0.31,243.6,26.6,138.05,31.39,24.66,36.54,0.94,13.61,-26.22,-50,77,-922,26.0,22.0,2.7,25.9,1.6,-29.5,5.73,2.51,-27.3,30.1
2012-08-22 01:25:00,0.0,1.9413,0.0011,386.52,0.33,252.2,28.9,138.05,31.39,24.66,36.54,0.95,13.81,-26.21,-50,77,-922,26.0,22.5,2.9,25.9,1.6,-29.5,5.73,2.51,-27.3,30.1
2012-08-22 01:26:00,0.0,1.9410,0.0008,386.48,0.29,252.5,29.3,138.05,31.39,24.66,36.55,0.94,14.00,-26.21,-50,77,-922,26.0,22.6,3.0,25.9,1.6,-29.6,5.73,2.51,-27.3,30.1
2012-08-22 01:27:00,0.0,1.9407,0.0010,386.42,0.28,242.4,35.0,138.05,31.39,24.66,36.55,0.94,14.17,-26.20,-50,77,-922,26.0,22.4,2.9,25.9,1.6,-29.5,5.73,2.51,-27.3,30.1
2012-08-22 01:28:00,0.0,1.9396,0.0010,386.57,0.27,252.7,31.7,138.05,31.39,24.66,36.54,0.94,14.35,-26.19,-50,77,-922,26.0,22.2,2.8,25.9,1.6,-29.5,5.73,2.51,-27.3,30.1
2012-08-22 01:29:00,0.0,1.9396,0.0008,386.50,0.33,247.9,28.7,138.05,31.39,24.66,36.55,0.94,14.51,-26.19,-50,77,-922,26.0,21.9,2.6,25.9,1.6,-29.6,5.73,2.52,-27.3,30.1
2012-08-22 01:30:00,0.0,1.9401,0.0010,386.66,0.26,245.5,30.2,138.05,31.39,24.66,36.54,0.94,14.67,-26.18,-49,77,-922,26.0,22.0,2.7,25.9,1.6,-29.5,5.73,2.52,-27.3,30.1
2012-08-22 01:31:00,0.0,1.9408,0.0008,386.55,0.30,250.1,29.1,138.05,31.39,24.66,36.55,0.94,14.82,-26.18,-50,77,-922,26.0,22.5,3.0,25.9,1.6,-29.5,5.73,2.51,-27.3,30.1
2012-08-22 01:32:00,0.0,1.9413,0.0009,386.62,0.22,246.0,26.3,138.05,31.40,24.66,36.54,0.94,14.97,-26.17,-50,77,-922,26.0,22.1,2.7,25.9,1.6,-29.5,5.73,2.51,-27.3,30.1
2012-08-22 01:33:00,0.0,1.9414,0.0009,386.65,0.29,243.8,29.3,138.05,31.40,24.66,36.54,0.94,15.10,-26.17,-50,77,-922,26.0,22.0,2.7,25.9,1.6,-29.5,5.73,2.51,-27.3,30.1
2012-08-22 01:34:00,0.0,1.9419,0.0008,386.51,0.30,250.5,35.4,138.05,31.40,24.66,36.55,0.94,15.24,-26.16,-50,77,-922,26.0,22.2,2.8,25.9,1.6,-29.5,5.73,2.51,-27.3,30.1
2012-08-22 01:35:00,0.0,1.9416,0.0010,386.70,0.29,251.8,28.2,138.05,31.40,24.66,36.54,0.95,15.37,-26.15,-50,77,-921,26.0,22.0,2.6,25.9,1.6,-29.5,5.73,2.51,-27.3,30.1
2012-08-22 01:36:00,0.0,1.9425,0.0010,386.74,0.30,248.8,30.8,138.05,31.40,24.66,36.54,0.94,15.49,-26.15,-50,77,-922,26.0,22.0,2.7,25.9,1.6,-29.5,5.73,2.51,-27.3,30.1
2012-08-22 01:37:00,0.0,1.9434,0.0009,386.51,0.28,249.3,27.3,138.05,31.39,24.66,36.55,0.94,15.60,-26.15,-50,77,-922,26.0,22.1,2.7,25.9,1.6,-29.5,5.73,2.50,-27.3,30.1
2012-08-22 01:38:00,0.0,1.9433,0.0011,386.57,0.31,249.7,25.3,138.05,31.39,24.66,36.55,0.94,15.71,-26.14,-50,77,-922,26.0,22.4,2.9,25.9,1.6,-29.5,5.73,2.51,-27.3,30.2
2012-08-22 01:39:00,0.0,1.9433,0.0008,386.65,0.27,242.6,30.8,138.05,31.40,24.66,36.55,0.94,15.82,-26.13,-50,77,-922,26.1,22.0,2.7,25.9,1.6,-29.5,5.73,2.51,-27.3,30.1
2012-08-22 01:40:00,0.0,1.9431,0.0010,386.66,0.26,246.0,30.0,138.05,31.40,24.66,36.55,0.94,15.92,-26.13,-50,77,-922,26.0,21.8,2.5,25.9,1.6,-29.5,5.73,2.51,-27.3,30.1
2012-08-22 01:41:00,0.0,1.9433,0.0008,386.71,0.31,249.0,26.9,138.05,31.40,24.66,36.55,0.94,16.02,-26.12,-49,77,-922,26.0,22.2,2.8,25.9,1.6,-29.5,5.73,2.51,-27.3,30.2
2012-08-22 01:42:00,0.0,1.9438,0.0009,386.68,0.28,244.2,28.3,138.05,31.40,24.66,36.54,0.94,16.11,-26.12,-50,77,-922,26.0,22.4,2.9,25.9,1.6,-29.5,5.73,2.51,-27.3,30.2
2012-08-22 01:43:00,0.0,1.9439,0.0008,386.80,0.29,248.5,30.3,138.05,31.40,24.66,36.54,0.94,16.20,-26.12,-50,77,-922,26.1,22.4,2.9,25.9,1.6,-29.5,5.73,2.51,-27.3,30.1
2012-08-22 01:44:00,0.0,1.9444,0.0009,386.71,0.31,250.5,24.9,138.05,31.40,24.66,36.55,0.94,16.28,-26.12,-50,77,-921,26.1,21.9,2.6,25.9,1.6,-29.5,5.73,2.51,-27.3,30.2
2012-08-22 01:45:00,0.0,1.9441,0.0009,386.70,0.24,244.0,29.7,138.05,31.40,24.66,36.55,0.94,16.36,-26.11,-50,77,-922,26.1,21.7,2.5,25.9,1.6,-29.5,5.73,2.52,-27.3,30.2
2012-08-22 01:46:00,0.0,1.9451,0.0009,386.61,0.29,254.2,31.6,138.05,31.40,24.66,36.54,0.94,16.43,-26.11,-50,77,-922,26.1,22.0,2.7,25.9,1.6,-29.5,5.73,2.51,-27.3,30.1
2012-08-22 01:47:00,0.0,1.9450,0.0010,386.72,0.28,245.3,26.9,138.05,31.40,24.66,36.54,0.94,16.50,-26.11,-49,77,-922,26.1,22.4,2.9,25.9,1.6,-29.5,5.73,2.51,-27.3,30.2
2012-08-22 01:48:00,0.0,1.9445,0.0009,386.61,0.29,252.8,31.8,138.05,31.40,24.66,36.55,0.95,16.58,-26.10,-49,77,-922,26.1,22.4,2.9,25.9,1.6,-29.5,5.73,2.52,-27.3,30.2
2012-08-22 01:49:00,0.0,1.9443,0.0011,386.68,0.27,251.4,29.1,138.05,31.40,24.66,36.54,0.94,16.65,-26.09,-50,77,-922,26.1,22.1,2.7,25.9,1.6,-29.5,5.73,2.51,-27.3,30.1
2012-08-22 01:50:00,0.0,1.9437,0.0010,386.68,0.32,250.9,32.1,138.05,31.40,24.66,36.55,0.94,16.72,-26.09,-50,77,-922,26.1,22.2,2.8,25.9,1.6,-29.5,5.73,2.51,-27.3,30.1
2012-08-22 01:51:00,0.0,1.9441,0.0010,386.61,0.28,243.7,30.2,138.05,31.40,24.66,36.55,0.94,16.78,-26.09,-50,77,-922,26.0,22.5,3.0,25.9,1.6,-29.6,5.73,2.51,-27.3,30.1
2012-08-22 01:52:00,0.0,1.9439,0.0009,386.67,0.25,250.9,27.0,138.05,31.40,24.66,36.54,0.94,16.84,-26.08,-50,77,-922,26.1,22.5,3.0,25.9,1.6,-29.5,5.73,2.51,-27.3,30.1
2012-08-22 01:53:00,0.0,1.9442,0.0011,386.51,0.27,251.7,26.4,138.05,31.41,24.66,36.55,0.94,16.90,-26.08,-50,77,-921,26.0,22.2,2.8,25.9,1.6,-29.6,5.73,2.51,-27.3,30.1
2012-08-22 01:54:00,0.0,1.9441,0.0009,386.60,0.34,245.7,32.6,138.05,31.41,24.66,36.55,0.93,16.95,-26.08,-50,77,-921,26.1,22.3,2.8,25.9,1.6,-29.5,5.73,2.51,-27.3,30.2
2012-08-22 01:55:00,0.0,1.9442,0.0009,386.59,0.31,249.2,29.6,138.05,31.41,24.66,36.55,0.93,17.00,-26.08,-50,77,-921,26.1,22.3,2.8,25.9,1.6,-29.5,5.73,2.51,-27.3,30.2
2012-08-22 01:56:00,0.0,1.9435,0.0008,386.66,0.29,250.8,31.4,138.05,31.41,24.66,36.54,0.94,17.06,-26.07,-50,77,-921,26.1,21.8,2.5,25.9,1.6,-29.5,5.73,2.51,-27.3,30.2
2012-08-22 01:57:00,0.0,1.9432,0.0011,386.64,0.32,249.6,33.3,138.05,31.41,24.66,36.54,0.94,17.11,-26.07,-49,77,-922,26.1,21.9,2.6,25.9,1.6,-29.5,5.73,2.51,-27.3,30.2
2012-08-22 01:58:00,0.0,1.9435,0.0010,386.59,0.27,254.8,29.7,138.05,31.41,24.66,36.54,0.94,17.15,-26.06,-50,77,-922,26.1,22.0,2.7,25.9,1.6,-29.5,5.73,2.51,-27.3,30.2
2012-08-22 01:59:00,0.0,1.9437,0.0008,386.41,0.32,248.6,32.2,138.05,31.41,24.66,36.56,0.94,17.20,-26.05,-50,77,-922,26.1,22.1,2.7,25.9,1.6,-29.5,5.73,2.51,-27.3,30.2
2012-08-22 02:00:00,0.0,1.9439,0.0010,386.53,0.24,253.3,33.4,138.05,31.41,24.66,36.55,0.94,17.24,-26.06,-50,77,-922,26.1,21.8,2.6,25.9,1.6,-29.5,5.73,2.51,-27.3,30.2
2012-08-22 02:01:00,0.0,1.9441,0.0010,386.60,0.31,248.0,35.0,138.05,31.41,24.66,36.54,0.94,17.28,-26.06,-50,77,-922,26.1,21.8,2.5,25.9,1.6,-29.5,5.73,2.51,-27.3,30.1
2012-08-22 02:02:00,0.0,1.9439,0.0011,386.61,0.24,250.5,33.8,138.05,31.41,24.65,36.54,0.93,17.32,-26.05,-50,77,-922,26.1,22.2,2.8,25.9,1.6,-29.5,5.73,2.51,-27.3,30.1
2012-08-22 02:03:00,0.0,1.9436,0.0010,386.57,0.31,247.2,31.1,138.05,31.41,24.66,36.55,0.94,17.35,-26.05,-50,77,-921,26.1,22.2,2.8,25.9,1.6,-29.5,5.73,2.51,-27.3,30.1
2012-08-22 02:04:00,0.0,1.9434,0.0010,386.57,0.28,249.5,30.9,138.05,31.41,24.66,36.55,0.94,17.39,-26.05,-50,77,-921,26.1,21.9,2.6,25.9,1.6,-29.5,5.73,2.51,-27.3,30.1
2012-08-22 02:05:00,0.0,1.9438,0.0011,386.55,0.30,251.1,30.9,138.05,31.41,24.66,36.54,0.94,17.43,-26.04,-50,77,-922,26.1,21.9,2.6,25.9,1.6,-29.5,5.73,2.51,-27.3,30.1
2012-08-22 02:06:00,0.0,1.9436,0.0008,386.48,0.33,247.5,29.3,138.05,31.41,24.66,36.54,0.94,17.46,-26.04,-50,77,-922,26.1,22.2,2.8,25.9,1.6,-29.5,5.73,2.51,-27.3,30.1
2012-08-22 02:07:00,0.0,1.9440,0.0009,386.42,0.27,247.9,28.4,138.05,31.42,24.66,36.54,0.94,17.49,-26.04,-49,77,-922,26.1,22.3,2.9,25.9,1.6,-29.5,5.73,2.51,-27.3,30.1
2012-08-22 02:08:00,0.0,1.9435,0.0009,386.40,0.29,238.0,31.2,138.05,31.42,24.66,36.54,0.94,17.52,-26.04,-50,77,-922,26.1,22.5,3.0,25.9,1.6,-29.5,5.73,2.51,-27.3,30.2
2012-08-22 02:09:00,0.0,1.9439,0.0008,386.58,0.29,250.4,30.3,138.05,31.42,24.66,36.55,0.94,17.55,-26.04,-50,77,-922,26.1,22.0,2.7,25.9,1.6,-29.5,5.73,2.51,-27.3,30.2
2012-08-22 02:10:00,0.0,1.9434,0.0007,386.59,0.31,254.1,29.2,138.05,31.42,24.66,36.54,0.94,17.57,-26.04,-50,77,-921,26.1,22.1,2.8,25.9,1.6,-29.5,5.73,2.51,-27.3,30.1
2012-08-22 02:11:00,0.0,1.9431,0.0008,386.38,0.31,247.0,30.5,138.05,31.42,24.66,36.54,0.94,17.60,-26.03,-50,77,-921,26.1,22.1,2.8,25.9,1.6,-29.5,5.73,2.51,-27.3,30.1
2012-08-22 02:12:00,0.0,1.9425,0.0010,386.43,0.30,249.0,29.5,138.05,31.42,24.67,36.54,0.94,17.63,-26.03,-50,77,-921,26.1,22.1,2.7,25.9,1.6,-29.5,5.73,2.51,-27.3,30.2
2012-08-22 02:13:00,0.0,1.9427,0.0009,386.49,0.30,247.9,33.0,138.05,31.42,24.66,36.54,0.94,17.65,-26.03,-50,77,-921,26.1,22.1,2.8,25.9,1.6,-29.5,5.73,2.51,-27.3,30.2
2012-08-22 02:14:00,0.0,1.9423,0.0011,386.37,0.31,252.4,29.7,138.05,31.42,24.66,36.54,0.93,17.66,-26.03,-50,77,-921,26.1,22.1,2.7,25.9,1.6,-29.5,5.73,2.51,-27.3,30.1
2012-08-22 02:15:00,0.0,1.9432,0.0010,386.39,0.30,245.8,24.7,138.05,31.42,24.66,36.55,0.94,17.69,-26.03,-50,77,-921,26.1,22.1,2.8,25.9,1.6,-29.5,5.73,2.51,-27.3,30.2
2012-08-22 02:16:00,0.0,1.9428,0.0007,386.39,0.28,248.2,31.0,138.05,31.42,24.66,36.55,0.94,17.71,-26.03,-50,77,-921,26.1,22.0,2.7,25.9,1.6,-29.5,5.73,2.51,-27.3,30.1
2012-08-22 02:17:00,0.0,1.9426,0.0009,386.32,0.30,248.2,30.9,138.05,31.42,24.66,36.55,0.94,17.73,-26.03,-50,77,-921,26.1,22.1,2.7,25.9,1.6,-29.5,5.73,2.51,-27.3,30.1
2012-08-22 02:18:00,0.0,1.9418,0.0009,386.37,0.35,253.1,31.3,138.05,31.42,24.66,36.55,0.94,17.75,-26.03,-50,77,-921,26.1,21.7,2.5,25.9,1.6,-29.5,5.73,2.51,-27.3,30.1
2012-08-22 02:19:00,0.0,1.9413,0.0009,386.30,0.26,246.5,32.1,138.05,31.42,24.66,36.55,0.95,17.77,-26.03,-50,77,-921,26.0,21.9,2.6,25.9,1.6,-29.5,5.73,2.51,-27.3,30.1
2012-08-22 02:20:00,0.0,1.9405,0.0009,386.16,0.27,248.6,23.9,138.05,31.42,24.66,36.56,0.94,17.78,-26.02,-50,77,-921,26.0,22.0,2.6,25.9,1.6,-29.5,5.73,2.51,-27.3,30.1